Regional Weather Roundup
Issued by NWS

Home | Current Version | Previous Version | Text Only | Print | Product List | Glossary On
Versions: 1 2 3 4 5 6 7 8 9 10 11 12 13 14 15 16 17 18 19 20 21 22 23 24 25 26 27 28 29 30 31 32 33 34 35 36 37 38 39 40 41 42 43 44 45 46 47 48 49 50
000
ASUS43 KMPX 270910
RWRMN
WEATHER ROUNDUP FOR MINNESOTA
NATIONAL WEATHER SERVICE TWIN CITIES/CHANHASSEN MN
300 AM CST SAT DEC 27 2014


NOTE: "FAIR" INDICATES FEW OR NO CLOUDS BELOW 12,000 FEET WITH NO
SIGNIFICANT WEATHER AND/OR OBSTRUCTIONS TO VISIBILITY. N/A MEANS
CURRENT SKY AND/OR WEATHER CONDITIONS ARE NOT AVAILABLE.

MNZ060>063-068>070-271000-
   Twin Cities Metro

CITY           SKY/WX    TMP DP  RH WIND       PRES   REMARKS
TWIN CITIES    LGT SNOW  26  23  88 N13       29.99F FOG     WCI  15
ST PAUL        LGT SNOW  26  23  88 N12       30.00F VSB 1   WCI  16
CRYSTAL        LGT SNOW  26  22  84 N12       30.00F FOG     WCI  16
BLAINE         LGT SNOW  27  27 100 N14       30.01F WCI  15
LAKEVILLE      LGT SNOW  25  25 100 N8        29.98F WCI  16
EDEN PRAIRIE   LGT SNOW  26  22  84 N12       29.98F FOG     WCI  16
SOUTH ST PAUL  LGT SNOW  28  25  91 N8        29.98F WCI  19
LAKE ELMO      LGT SNOW  28  27  93 N9        29.99F WCI  20
$$
MNZ001>005-007-008-013>017-022>024-027-028-271000-
   Northwest Minnesota

CITY           SKY/WX    TMP DP  RH WIND       PRES   REMARKS
BEMIDJI        FLURRIES  13   9  82 NW5       30.11R WCI   5
HALLOCK        LGT SNOW   7   1  78 CALM      30.18S
ROSEAU         FLURRIES  10   5  79 W3        30.14S
WARROAD        CLOUDY    10   5  79 W6        30.14R WCI   1
THIEF RVR FALL CLOUDY     9   1  72 W5        30.15S WCI   0
CROOKSTON      CLOUDY     7   3  85 NW5       30.20S WCI  -2
FOSSTON        LGT SNOW   9   7  92 W5        30.14S WCI   0
DETROIT LAKES  LGT SNOW  10  10 100 NW8       30.14S WCI  -1
MOORHEAD       CLEAR      5   3  92 NW5       30.20F WCI  -4
PARK RAPIDS    CLOUDY    18  12  77 NW8       30.09S WCI   8
MAHNOMEN       LGT SNOW  10   7  91 NW8       30.14S WCI  -3
$$
MNZ006-009>011-018-025>026-271000-
   North Central Minnesota

CITY           SKY/WX    TMP DP  RH WIND       PRES   REMARKS
BAUDETTE       CLOUDY    12   5  73 VRB3      30.11F
FLAG ISLAND    CLOUDY     9   3  78 SW6       30.12S WCI  -1
INTL FALLS     FLURRIES  13   6  74 W7        30.10F WCI   3
WASKISH        CLOUDY    16   9  73 CALM      30.11S
BIG FORK       FLURRIES  18  10  73 CALM      30.09S
LONGVILLE      CLOUDY    19  14  79 N6        30.09S WCI  11
GRAND RAPIDS   CLOUDY    18  12  79 N6        30.07S WCI   9
CRANE LAKE     FLURRIES  14  10  85 NW3       30.11S
ORR            CLOUDY    16   9  73 CALM      30.06R
COOK           CLOUDY    16  10  79 NW3       30.09R
WALKER         CLOUDY    17  10  77 NW3       30.10S
$$
MNZ012-019>021-037-271000-
   Northeast Minnesota

CITY           SKY/WX    TMP DP  RH WIND       PRES   REMARKS
DULUTH         CLOUDY    23  16  74 N8        30.03R WCI  14
ELY            CLOUDY    16  12  86 CALM      30.06R
HIBBING        CLOUDY    19  12  74 NW9       30.08R WCI   8
EVELETH        FLURRIES  21  18  86 N5        30.07S WCI  15
DULUTH HARBOR  CLOUDY    28  21  74 N7        30.09R WCI  21
TWO HARBORS    CLOUDY    27  19  74 NW3       30.03R
GRAND MARAIS     N/A     26  17  68 N9        30.05F WCI  17
G MARAIS ARPRT CLOUDY    18  14  86 N6        29.99F WCI   9
$$
MNZ029>031-032-039>041-046>048-054>057-064-271000-
   West Central Minnesota

CITY           SKY/WX    TMP DP  RH WIND       PRES   REMARKS
FERGUS FALLS   PTCLDY     9   3  78 N8        30.19S WCI  -4
WHEATON        MOCLDY     9   5  85 NW10      30.20R WCI  -6
MORRIS         CLOUDY    14  10  85 NW15      30.13R WCI  -1
ALEXANDRIA     CLOUDY    20  15  81 NW9       30.08S WCI   9
ELBOW LAKE     FAIR      10   7  87 NW12      30.13S WCI  -4
WADENA         CLOUDY    18  16  93 NW7       30.08F WCI   8
GLENWOOD       CLOUDY    21  18  86 NW10      30.08S WCI  10
APPLETON       CLOUDY    18  12  79 NW20      30.14R WCI   1
BENSON         CLOUDY    18  16  93 N17       30.11S WCI   2
ORTONVILLE     MOCLDY    10   7  85 NW12      30.16R WCI  -4
MADISON        CLOUDY    19  16  86 NW16      30.15R WCI   5
WILLMAR        LGT SNOW  25  19  80 N10       30.08S WCI  15
$$
MNZ033>034-036-042>043-049>051-058-059-271000-
   Central Minnesota

CITY           SKY/WX    TMP DP  RH WIND       PRES   REMARKS
ST CLOUD       CLOUDY    25  17  72 N12       30.05F WCI  14
SAUK CENTRE    CLOUDY    21  16  79 N6        30.07F WCI  14
PAYNESVILLE    CLOUDY    19  16  87 NW7       30.07S WCI  10
AITKIN         CLOUDY    23  16  74 N6        30.06F WCI  16
PINE RIVER     CLOUDY    19  16  86 N6        30.11F WCI  11
BRAINERD       CLOUDY    21  14  74 N9        30.07F WCI  11
STAPLES        CLOUDY    19  16  86 NW9       30.07F WCI   9
LONG PRAIRIE   CLOUDY    21  16  79 N7        30.07S WCI  13
LITTLE FALLS   CLOUDY    23  16  74 N6        30.07F WCI  16
LITCHFIELD     LGT SNOW  23  21  93 N10       30.06R WCI  12
BUFFALO        FLURRIES  24  21  89 N12       30.04S WCI  13
MAPLE LAKE     LGT SNOW  24  22  93 NW12G17   30.04F WCI  13
$$
MNZ037-044-045-052-053-271000-
   East Central Minnesota

CITY           SKY/WX    TMP DP  RH WIND       PRES   REMARKS
PRINCETON      LGT SNOW  25  21  86 N8        30.04F WCI  16
MORA           CLOUDY    23  18  80 N6        30.06F WCI  16
CAMBRIDGE      LGT SNOW  27  18  69 N7        30.02F WCI  19
RUSH CITY      MIX PCPN  24  21  89 N10       30.03F WCI  14
MOOSE LAKE     CLOUDY    23  18  80 N5        30.04F WCI  17
HINCKLEY       CLOUDY    27  19  74 CALM      30.04F
CLOQUET          N/A     21  16  79 NW10      30.05S WCI  10
MCGREGOR       CLOUDY    23  19  86 NW8       30.07F WCI  14
$$
MNZ071>073-080-081-089-090-097-098-271000-
   Southwest Minnesota

CITY           SKY/WX    TMP DP  RH WIND       PRES   REMARKS
MONTEVIDEO     CLOUDY    19  18  93 N15       30.12R WCI   5
GRANITE FALLS  LGT SNOW  20  18  91 NW14      30.11S WCI   7
CANBY          LGT SNOW  17  14  89 NW13      30.14R WCI   3
MARSHALL       CLOUDY    19  12  73 N22       30.08S WCI   3
REDWOOD FALLS  LGT SNOW  24  21  88 N15       30.07S FOG     WCI  11
OLIVIA         LGT SNOW  23  21  93 N9        30.06S WCI  13
PIPESTONE      CLOUDY    19  18  93 N9        30.06  WCI   9
WINDOM         LGT SNOW  23  21  93 NW16      30.03S VSB 1   WCI  10
WORTHINGTON    CLOUDY    19 -24  13 N18       30.05R WCI   4
JACKSON        LGT SNOW  27  23  86 NW14G22   30.02S WCI  15
TRACY          LGT SNOW  20  19  93 N16G22    30.07S WCI   6
SLAYTON        LGT SNOW  19  17  93 NW14      30.05S WCI   6
$$
MNZ065>067-074>077-082>085-091>093-271000-
   South Central Minnesota

CITY           SKY/WX    TMP DP  RH WIND       PRES   REMARKS
MANKATO        CLOUDY    27  21  80 N14       30.00R WCI  15
NEW ULM        LGT SNOW  25  21  86 N10       30.04R VSB 1   WCI  15
ST JAMES       LGT SNOW  27  25  93 NW15      30.04S WCI  15
FAIRMONT       CLOUDY    25  21  86 N17       30.00S WCI  11
GLENCOE        LGT SNOW  25  24  95 N14       30.02S WCI  13
FARIBAULT      LGT SNOW  27  25  93 N12       29.97S WCI  16
OWATONNA       LGT SNOW  28  25  86 N13       29.95S WCI  18
WASECA         LGT SNOW  27  25  93 N14       29.98R WCI  15
ALBERT LEA     LGT SNOW  28  28 100 N10G16    29.93S VSB 1   WCI  19
$$
MNZ078>079-086>088-094>096-271000-
   Southeast Minnesota

CITY           SKY/WX    TMP DP  RH WIND       PRES   REMARKS
ROCHESTER      LGT SNOW  29  27  92 N13       29.89F VSB 3/4 WCI  19
RED WING       MIX PCPN  30  27  86 N6        29.95F WCI  24
STANTON        LGT SNOW  29  26  90 N12       29.96F WCI  19
DODGE CENTER   LGT SNOW  28  27  93 N14       29.90F WCI  17
WINONA         LGT SNOW  34  34 100 CALM      29.93F
AUSTIN         LGT SNOW  28  28 100 N7        29.90F WCI  21
PRESTON        LGT SNOW  30  29  98 N3        29.89F
$$
ABBREVIATIONS USED IN REMARKS
   TC - TEMPERATURES IN CELSIUS
  WCI - WIND CHILL INDEX
   HX - HEAT INDEX
  VSB - VISIBILITY
$$


USA.gov is the U.S. government's official web portal to all federal, state and local government web resources and services.